Tracking 30685 objects as of 19-Jun-2025
HD Live streaming from Space Station
objects crossing your sky now

STARLINK-32883

Track STARLINK-32883 now!
10-day predictions
STARLINK-32883 is classified as:


NORAD ID: 62806
Int'l Code: 2025-018A
Perigee: 480.2 km
Apogee: 484.5 km
Inclination: 53.2 °
Period: 94.1 minutes
Semi major axis: 6853 km
RCS: Unknown
Launch date: January 24, 2025
Source: United States (US)
Launch site: AIR FORCE WESTERN TEST RANGE (AFWTR)
Your satellite tracking list
Your tracking list is empty




NASA's NSSDC Master Catalog

Two Line Element Set (TLE):
1 62806U 25018A   25169.51794600  .00020788  00000-0  71177-3 0  9994
2 62806  53.1592  96.5794 0003161  82.2246 277.9113 15.30210442 23641
Source of the keplerian elements: AFSPC